Regional Weather Roundup
Issued by NWS

Home | Current Version | Previous Version | Graphics & Text | Print | Product List | Glossary On
Versions: 1 2 3 4 5 6 7 8 9 10 11 12 13 14 15 16 17 18 19 20 21 22 23 24 25 26 27 28 29 30 31 32 33 34 35 36 37 38 39 40 41 42 43 44 45 46 47 48 49 50
967
ASUS43 KLMK 180310
RWRKY
KENTUCKY REGIONAL WEATHER ROUNDUP
NATIONAL WEATHER SERVICE LOUISVILLE KY
1100 PM EDT TUE OCT 17 2017

NOTE "FAIR" INDICATES FEW OR NO CLOUDS BELOW 12,000 FEET
WITH NO SIGNIFICANT WEATHER AND/OR OBSTRUCTIONS TO VISIBILITY.

KYZ001>023-026-027-061>063-070>075-180400-
WESTERN AND SOUTH CENTRAL KENTUCKY

CITY           SKY/WX    TMP DP  RH WIND       PRES   REMARKS
PADUCAH        CLEAR     47  42  83 CALM      30.24S
HENDERSON      CLEAR     47  44  90 CALM      30.26
OWENSBORO      CLEAR     50  45  83 CALM      30.27R
HOPKINSVILLE   CLEAR     51  45  77 CALM      30.26R
BOWLING GREEN  CLEAR     48  46  93 CALM      30.28S
GLASGOW        CLEAR     45  45 100 CALM      30.29R
$$

KYZ024-025-028>034-038-045-046-053-180400-
NORTH CENTRAL KENTUCKY

CITY           SKY/WX    TMP DP  RH WIND       PRES   REMARKS
LOUISVILLE/SDF PTCLDY    53  45  74 CALM      30.28R
LOUISVILLE/LOU CLEAR     50  47  89 CALM      30.29R
FORT KNOX      CLEAR     47  44  90 CALM      30.26S
$$

KYZ035>037-039>044-047>052-055>060-089>105-180400-
NORTHEAST KENTUCKY

CITY           SKY/WX    TMP DP  RH WIND       PRES   REMARKS
LEXINGTON      CLEAR     48  42  80 SE5       30.30R
COVINGTON      PTCLDY    47  45  93 S5        30.28R
FRANKFORT      CLEAR     45  40  82 CALM      30.28S
$$

KYZ054-064>069-076>088-106>120-180400-
SOUTHEAST KENTUCKY

CITY           SKY/WX    TMP DP  RH WIND       PRES   REMARKS
JACKSON        CLEAR     52  39  61 CALM      30.31S
LONDON         CLEAR     46  43  89 CALM      30.31R
SOMERSET       CLEAR     43  43 100 CALM      30.32R
MIDDLESBORO    CLEAR     44  43  99 CALM      30.33S
MONTICELLO     CLEAR     41  40  96 W9        30.33R
$$





USA.gov is the U.S. government's official web portal to all federal, state and local government web resources and services.